• In Hungary
  • List of Countries
  • For 7 days
  • Water Temperature
  • Satellite Maps
  • Weather Map
  • News
  • Weather Widgets
  • user-avatar
    Login

    Hourly Weather Kirov

    Today, 19 September, Wednesday

    Time Temperature Precipitation Wind Pressure Humidity
    00:00 +15°C° 0.1 mm 5 mps 752 mmHg 72%
    01:00 +14°C° 0 mm 5 mps 752 mmHg 75%
    02:00 +14°C° 0 mm 5 mps 752 mmHg 79%
    03:00 +13°C° 0 mm 4 mps 752 mmHg 83%
    04:00 +13°C° 0 mm 4 mps 752 mmHg 84%
    05:00 +12°C° 0 mm 5 mps 752 mmHg 85%
    06:00 +12°C° 0 mm 5 mps 753 mmHg 86%
    07:00 +13°C° 0 mm 6 mps 753 mmHg 78%
    08:00 +14°C° 0 mm 7 mps 753 mmHg 69%
    09:00 +15°C° 0 mm 8 mps 753 mmHg 60%
    10:00 +16°C° 0 mm 8 mps 753 mmHg 55%
    11:00 +17°C° 0 mm 8 mps 754 mmHg 49%
    12:00 +17°C° 0 mm 8 mps 754 mmHg 43%
    13:00 +18°C° 0 mm 8 mps 754 mmHg 42%
    14:00 +18°C° 0 mm 8 mps 754 mmHg 41%
    15:00 +18°C° 0 mm 8 mps 754 mmHg 39%
    16:00 +17°C° 0 mm 7 mps 754 mmHg 42%
    17:00 +17°C° 0 mm 6 mps 754 mmHg 44%
    18:00 +16°C° 0 mm 5 mps 754 mmHg 47%
    19:00 +16°C° 0 mm 5 mps 754 mmHg 50%
    20:00 +15°C° 0 mm 5 mps 755 mmHg 54%
    21:00 +15°C° 0 mm 4 mps 755 mmHg 57%
    22:00 +15°C° 0.1 mm 4 mps 755 mmHg 62%
    23:00 +14°C° 0.1 mm 3 mps 755 mmHg 66%

    Tomorrow, 20 September, Thursday

    Time Temperature Precipitation Wind Pressure Humidity
    00:00 +14°C° 0.1 mm 3 mps 755 mmHg 71%
    01:00 +14°C° 0 mm 3 mps 755 mmHg 73%
    02:00 +14°C° 0 mm 3 mps 755 mmHg 76%
    03:00 +13°C° 0 mm 3 mps 755 mmHg 79%
    04:00 +13°C° 0 mm 3 mps 755 mmHg 82%
    05:00 +13°C° 0 mm 3 mps 754 mmHg 84%
    06:00 +13°C° 0 mm 3 mps 754 mmHg 87%
    07:00 +14°C° 0 mm 4 mps 754 mmHg 82%
    08:00 +17°C° 0 mm 4 mps 755 mmHg 77%
    09:00 +19°C° 0 mm 4 mps 755 mmHg 72%
    10:00 +20°C° 0 mm 5 mps 754 mmHg 65%
    11:00 +22°C° 0 mm 5 mps 754 mmHg 58%
    12:00 +24°C° 0 mm 6 mps 754 mmHg 51%
    13:00 +24°C° 0 mm 6 mps 754 mmHg 49%
    14:00 +26°C° 0 mm 6 mps 754 mmHg 47%
    15:00 +26°C° 0 mm 6 mps 754 mmHg 45%
    16:00 +25°C° 0 mm 5 mps 754 mmHg 50%
    17:00 +23°C° 0 mm 4 mps 754 mmHg 55%
    18:00 +21°C° 0 mm 3 mps 753 mmHg 61%
    19:00 +21°C° 0 mm 3 mps 753 mmHg 64%
    20:00 +20°C° 0 mm 3 mps 754 mmHg 68%
    21:00 +19°C° 0 mm 3 mps 754 mmHg 72%
    22:00 +19°C° 0 mm 3 mps 754 mmHg 75%
    23:00 +19°C° 0 mm 3 mps 754 mmHg 78%

    Day after tomorrow, 21 September, Friday

    Time Temperature Precipitation Wind Pressure Humidity
    00:00 +18°C° 0 mm 4 mps 754 mmHg 80%
    01:00 +18°C° 0 mm 4 mps 754 mmHg 83%
    02:00 +17°C° 0 mm 4 mps 754 mmHg 85%
    03:00 +17°C° 0 mm 3 mps 754 mmHg 87%
    04:00 +15°C° 0 mm 4 mps 754 mmHg 88%
    05:00 +15°C° 0 mm 4 mps 755 mmHg 89%
    06:00 +15°C° 0 mm 4 mps 755 mmHg 91%
    07:00 +17°C° 0 mm 4 mps 756 mmHg 85%
    08:00 +18°C° 0 mm 4 mps 756 mmHg 80%
    09:00 +19°C° 0 mm 4 mps 757 mmHg 75%
    10:00 +20°C° 0 mm 4 mps 757 mmHg 70%
    11:00 +21°C° 0 mm 4 mps 757 mmHg 65%
    12:00 +22°C° 0 mm 4 mps 757 mmHg 60%
    13:00 +22°C° 0 mm 4 mps 758 mmHg 59%
    14:00 +22°C° 0 mm 4 mps 758 mmHg 58%
    15:00 +22°C° 0 mm 4 mps 758 mmHg 57%
    16:00 +21°C° 0 mm 3 mps 758 mmHg 59%
    17:00 +21°C° 0 mm 3 mps 758 mmHg 61%
    18:00 +20°C° 0 mm 2 mps 759 mmHg 64%
    19:00 +19°C° 0 mm 2 mps 759 mmHg 66%
    20:00 +18°C° 0 mm 2 mps 759 mmHg 69%
    21:00 +19°C° 0 mm 1 mps 760 mmHg 71%
    22:00 +18°C° 0 mm 1 mps 760 mmHg 73%
    23:00 +18°C° 0 mm 1 mps 760 mmHg 74%

    22 September, Saturday

    Time Temperature Precipitation Wind Pressure Humidity
    00:00 +16°C° 0 mm 1 mps 760 mmHg 75%
    01:00 +16°C° 0 mm 1 mps 760 mmHg 77%
    02:00 +16°C° 0 mm 1 mps 761 mmHg 78%
    03:00 +16°C° 0 mm 1 mps 761 mmHg 80%
    04:00 +14°C° 0 mm 0 mps 761 mmHg 81%
    05:00 +14°C° 0 mm 0 mps 761 mmHg 82%
    06:00 +14°C° 0 mm 0 mps 761 mmHg 83%
    07:00 +15°C° 0 mm 0 mps 762 mmHg 77%
    08:00 +17°C° 0 mm 0 mps 762 mmHg 71%
    09:00 +19°C° 0 mm 0 mps 762 mmHg 64%
    10:00 +22°C° 0 mm 1 mps 762 mmHg 60%
    11:00 +23°C° 0 mm 1 mps 761 mmHg 56%
    12:00 +24°C° 0 mm 2 mps 761 mmHg 52%
    13:00 +24°C° 0 mm 2 mps 761 mmHg 50%
    14:00 +25°C° 0 mm 2 mps 761 mmHg 47%
    15:00 +25°C° 0 mm 2 mps 760 mmHg 45%
    16:00 +24°C° 0 mm 2 mps 760 mmHg 48%
    17:00 +23°C° 0 mm 1 mps 760 mmHg 51%
    18:00 +22°C° 0 mm 1 mps 760 mmHg 54%
    19:00 +21°C° 0 mm 1 mps 760 mmHg 55%
    20:00 +21°C° 0 mm 1 mps 760 mmHg 57%
    21:00 +19°C° 0 mm 2 mps 760 mmHg 58%
    22:00 +19°C° 0 mm 2 mps 760 mmHg 59%
    23:00 +19°C° 0 mm 2 mps 760 mmHg 60%

    23 September, Sunday

    Time Temperature Precipitation Wind Pressure Humidity
    00:00 +18°C° 0 mm 2 mps 760 mmHg 61%
    01:00 +18°C° 0 mm 2 mps 760 mmHg 62%
    02:00 +17°C° 0 mm 2 mps 760 mmHg 63%
    03:00 +17°C° 0 mm 2 mps 760 mmHg 64%
    04:00 +17°C° 0 mm 3 mps 759 mmHg 64%
    05:00 +17°C° 0 mm 3 mps 759 mmHg 64%
    06:00 +16°C° 0 mm 3 mps 759 mmHg 65%
    07:00 +18°C° 0 mm 3 mps 759 mmHg 60%
    08:00 +20°C° 0 mm 4 mps 759 mmHg 55%
    09:00 +22°C° 0 mm 4 mps 759 mmHg 51%
    10:00 +23°C° 0 mm 5 mps 758 mmHg 47%
    11:00 +25°C° 0 mm 5 mps 758 mmHg 44%
    12:00 +26°C° 0 mm 6 mps 758 mmHg 41%
    13:00 +26°C° 0 mm 6 mps 757 mmHg 38%
    14:00 +27°C° 0 mm 6 mps 756 mmHg 36%
    15:00 +27°C° 0 mm 6 mps 756 mmHg 33%
    16:00 +25°C° 0 mm 5 mps 756 mmHg 35%
    17:00 +23°C° 0 mm 5 mps 756 mmHg 38%
    18:00 +22°C° 0 mm 4 mps 755 mmHg 40%
    19:00 +21°C° 0 mm 4 mps 755 mmHg 40%
    20:00 +20°C° 0 mm 4 mps 755 mmHg 41%
    21:00 +20°C° 0 mm 5 mps 755 mmHg 41%
    22:00 +19°C° 0 mm 5 mps 754 mmHg 40%
    23:00 +19°C° 0 mm 6 mps 754 mmHg 39%

    24 September, Monday

    Time Temperature Precipitation Wind Pressure Humidity
    00:00 +19°C° 0 mm 6 mps 753 mmHg 38%
    01:00 +19°C° 0 mm 6 mps 752 mmHg 39%
    02:00 +17°C° 0 mm 6 mps 752 mmHg 41%
    03:00 +17°C° 0 mm 6 mps 751 mmHg 42%
    04:00 +17°C° 0 mm 6 mps 751 mmHg 43%
    05:00 +17°C° 0 mm 7 mps 751 mmHg 45%
    06:00 +16°C° 0 mm 7 mps 750 mmHg 46%
    07:00 +17°C° 0.3 mm 7 mps 750 mmHg 47%
    08:00 +18°C° 0.3 mm 7 mps 750 mmHg 48%
    09:00 +18°C° 0.3 mm 7 mps 750 mmHg 49%
    10:00 +18°C° 1.1 mm 7 mps 749 mmHg 57%
    11:00 +18°C° 1.1 mm 7 mps 749 mmHg 64%
    12:00 +19°C° 1.1 mm 6 mps 749 mmHg 72%
    13:00 +17°C° 1.3 mm 6 mps 749 mmHg 75%
    14:00 +17°C° 1.3 mm 5 mps 749 mmHg 77%
    15:00 +18°C° 1.3 mm 4 mps 749 mmHg 80%
    16:00 +17°C° 0.8 mm 4 mps 749 mmHg 82%
    17:00 +17°C° 0.8 mm 3 mps 749 mmHg 84%
    18:00 +16°C° 0.8 mm 3 mps 749 mmHg 86%
    19:00 +16°C° 0 mm 2 mps 749 mmHg 86%
    20:00 +15°C° 0 mm 2 mps 749 mmHg 86%
    21:00 +15°C° 0 mm 2 mps 749 mmHg 86%
    22:00 +14°C° 0 mm 2 mps 749 mmHg 88%
    23:00 +14°C° 0 mm 2 mps 749 mmHg 89%
    Show more